Regional Weather Roundup
Issued by NWS

Home | Current Version | Previous Version | Graphics & Text | Print | Product List | Glossary On
Versions: 1 2 3 4 5 6 7 8 9 10 11 12 13 14 15 16 17 18 19 20 21 22 23 24 25 26 27 28 29 30 31 32 33 34 35 36 37 38 39 40 41 42 43 44 45 46 47 48 49 50
000
ASUS45 KTFX 160910
RWRMT
MONTANA REGIONAL WEATHER ROUNDUP
NATIONAL WEATHER SERVICE GREAT FALLS MT
200 AM MST TUE JAN 16 2018

NOTE: "FAIR" INDICATES FEW OR NO CLOUDS BELOW 12000 FEET WITH NO
SIGNIFICANT WEATHER AND/OR OBSTRUCTIONS TO VISIBILITY.

MTZ001>007-043-161000-
WEST OF THE DIVIDE

CITY           SKY/WX    TMP DP  RH WIND       PRES   REMARKS
KALISPELL      FOG       15  13  91 CALM      30.27S VSB 1/4
MISSOULA       FAIR      33  25  72 SE20      30.26F WCI  21
BUTTE          FAIR       9   5  84 CALM      30.29F
MULLAN PASS    FOG       27  24  89 S8        30.13S VSB 3/4 WCI  19
ANACONDA         N/A     25  19  80 SW8       30.28F WCI  16
DEER LODGE       N/A     27  21  80 S12G18    30.29F WCI  16
EUREKA           N/A     28  25  86 MISG      30.31S
HAMILTON         N/A     27  25  93 E3        30.24F
PLAINS           N/A     31  24  75 CALM      30.25F
RONAN            N/A     28  28 100 E5        30.28S FOG
$$

MTZ008-052>055-161000-
SOUTHWEST MONTANA

CITY           SKY/WX    TMP DP  RH WIND       PRES   REMARKS
BOZEMAN        FAIR      11   7  84 SE7       30.37S WCI   0
DILLON         CLOUDY    25  19  78 SW12      30.33F WCI  14
ENNIS          PTCLDY    14  10  85 NE8       30.36F WCI   3
W YELLOWSTONE  FAIR     -11 -15  84 CALM      30.38S
THREE FORKS      N/A     15  11  84 CALM      30.30F
TWIN BRIDGES     N/A     28  19  69 CALM      30.28F
$$

MTZ009-010-012-014-046-048-049-054-161000-
EAST SLOPES AND CENTRAL MONTANA

CITY           SKY/WX    TMP DP  RH WIND       PRES   REMARKS
CUT BANK       FOG        2   0  91 SE5       30.18F VSB 1/4
GREAT FALLS    FAIR      23   9  55 S10       30.21F WCI  12
MALMSTROM AFB  FAIR      -2  -4  90 CALM      30.24F
HELENA         FAIR      13  11  92 CALM      30.34F
AUGUSTA        FAIR      17  17 100 S3        30.17F
BOWMANS CRNR   FAIR      24  19  80 S33G39    30.15F WCI   7
CHOTEAU          N/A     18  16  93 S7        30.19F WCI   8
FAIRFIELD      FAIR      20  14  79 SE7       30.18F WCI  11
POWER          FAIR       5   2  86 SE7       30.19F WCI  -7
RAYNESFORD     FAIR      18  10  72 E9        30.21F WCI   6
ULM            FAIR      22  13  67 S9        30.22F WCI  12
WHITE SULPHUR    N/A      1  -2  85 N3        30.32F
$$

MTZ011-013-016-021-045-047-050-051-161000-
NORTH CENTRAL MONTANA

CITY           SKY/WX    TMP DP  RH WIND       PRES   REMARKS
HAVRE          FAIR     -27 -31  81 CALM      30.37F
LEWISTOWN      FAIR       9   1  70 SE10      30.24F WCI  -5
N BAR RANCH    FAIR      28 -20  11 CALM      30.30S
CHINOOK          N/A    -24 -27  83 W3        30.40F
DENTON         FAIR       6  -2  67 MISG      30.22F
GRASS RANGE    FAIR      10  -3  55 CALM      30.24F
STANFORD       FAIR      22   9  55 S8        30.21F WCI  13
WINIFRED       FAIR       4  -7  59 E9        30.25F WCI -10
$$

MTZ017>020-022>027-061-062-161000-
NORTHEAST MONTANA

CITY           SKY/WX    TMP DP  RH WIND       PRES   REMARKS
GLASGOW        FAIR     N/A N/A N/A E17       30.53F
GLENDIVE       FAIR     -15 -21  74 SW7       30.61F WCI -31
MALTA          CLEAR    -15 -20  76 E9        30.47F WCI -33
SIDNEY         FAIR     -19 -24  77 S8        30.68F WCI -37
WOLF POINT     FAIR     -20 -28  67 NE7       30.63F WCI -37
PLENTYWOOD       N/A    -17 -20  83 CALM      30.59F
POPLAR           N/A    -20 -27  69 N3        30.63F
SCOBEY           N/A    -16 -26  60 NW5       30.47F
$$

MTZ028>42-056>058-161000-
SOUTHCENTRAL AND SOUTHEAST MONTANA

CITY           SKY/WX    TMP DP  RH WIND       PRES   REMARKS
BAKER          FAIR     -18 -21  87 SE9       30.57F WCI -37
BILLINGS       FAIR       1  -5  75 CALM      30.42F
LIVINGSTON     CLOUDY    17  16  95 NW12      30.34S WCI   4
MILES CITY     FAIR     -17 -20  86 SE7       30.56F WCI -33
BIG TIMBER     CLOUDY    16  14  93 S6        30.38F WCI   7
EKALAKA          N/A      0 -10  62 SE7       30.42F WCI -13
FORSYTH          N/A    -20 -26  76 CALM      30.53F
HARLOWTON      FOG       11   9  89 W6        30.35F VSB 3/8 WCI   2
LAUREL           N/A     -2  -8  78 NE3       30.44F
ROUNDUP          N/A      4  -3  72 S7        30.28F WCI  -8
$$

REGIONAL REPORTS...DAKOTAS

CITY           SKY/WX    TMP DP  RH WIND       PRES   REMARKS
WILLISTON      FAIR     -17 -23  73 S6        30.67F WCI -32
MINOT          FAIR     -13 -19  75 S8        30.71F WCI -30
DICKINSON      FAIR     -15 -21  74 S8        30.61F WCI -32
BEACH          FAIR     -15 -20  76 S7        30.61F WCI -31
CROSBY         FAIR     -13 -18  77 S15       30.62F WCI -36
TIOGA          FAIR     -17 -20  83 CALM      30.64F
WATFORD CITY   FAIR     -22 -29  69 CALM      30.68S
BISMARCK       FAIR     -21 -26  77 CALM      30.79F
GRAND FORKS    FAIR     -15 -20  78 W7        30.82F WCI -31
FARGO          CLOUDY   -10 -17  71 N13       30.82S WCI -30
BUFFALO SD       N/A    -12 -18  74 S6        30.51F WCI -26
RAPID CITY     FAIR      -9 -15  75 SE5       30.64F
$$

REGIONAL REPORTS...WYOMING/IDAHO/WASHINGTON

CITY           SKY/WX    TMP DP  RH WIND       PRES   REMARKS
GILLETTE       FAIR       0  -8  69 SE8       30.47F WCI -14
SHERIDAN       FAIR     -11 -15  82 CALM      30.44F
BUFFALO WY     FAIR      11  -7  44 S6        30.38F WCI   1
CODY           FAIR       9   6  88 VRB3      30.40F
YELLOWSTONE LA   N/A     -7 -11  83 CALM      30.37F
IDAHO FALLS    FAIR      25  21  85 N3        30.33F
SALMON         CLOUDY    29  25  85 SW9       30.37S WCI  20
BOISE          FAIR      37  29  72 SE9       30.20F WCI  30
SPOKANE        FAIR      32  30  92 NE5       30.12S
$$

REGIONAL REPORTS...ALBERTA

CITY           SKY/WX    TMP DP  RH WIND       PRES   REMARKS
CALGARY        PTCLDY    14  10  85 S9        30.01S WCI   2
CARDSTON         N/A     16   7  67 MISG        N/A
EDMONTON       CLEAR      7   3  85 S7        30.03F WCI  -5
FORT MCMURRAY  PTCLDY     7   1  78 E6        30.06F WCI  -3
HIGH LEVEL     CLEAR      0  -2  92 S3        29.90F
LETHBRIDGE     CLEAR     21  12  68 S18       30.09F WCI   6
LLOYDMINSTER   CLEAR      1  -8  66 S14G20    30.16F WCI -17
MEDICINE HAT   CLEAR     -8 -13  77 N8        30.20F WCI -23
MILK RIVER       N/A      3   0  85 S24G30      N/A  WCI -20
ONEFOUR          N/A     -8 -11  84 E20         N/A  WCI -32
PEACE RIVER    CLEAR      7   3  85 W5        29.92F
PINCHER CREEK  CLEAR     34  25  69 W20G26    30.07F WCI  22
WATERTON GATE    N/A     43  21  42 SW24G33     N/A
$$

REGIONAL REPORTS...SASKATCHEWAN

CITY           SKY/WX    TMP DP  RH WIND       PRES   REMARKS
CORONACH         N/A    -13 -18  77 SE12        N/A  WCI -33
CYPRESS HILLS    N/A     10 -11  37 S14         N/A  WCI  -5
ESTEVAN        CLEAR     -9 -17  70 SW12      30.63F WCI -29
MOOSE JAW        N/A     -6 -13  71 SE9         N/A  WCI -22
PRINCE ALBERT  CLEAR    -18 -24  76 E5        30.42F
REGINA         MOCLDY    -9 -15  77 SE14      30.51F WCI -31
ROCKGLEN         N/A     -4  -9  77 S20         N/A  WCI -27
SASKATOON      CLEAR     -2 -11  65 S14       30.39F WCI -21
SWIFT CURRENT  CLEAR      5  -4  66 S28G35    30.27F WCI -18
VAL MARIE        N/A    -13 -18  77 SE5         N/A
$$



USA.gov is the U.S. government's official web portal to all federal, state and local government web resources and services.